Change the Weather History Date:

Monday, March 9, 2015

  Actual Average Record
Temperature  
Mean Temperature 30 °F -  
Max Temperature 44 °F 40 °F 65 °F (1987)
Min Temperature 17 °F 16 °F -5 °F (2007)
Degree Days  
Heating Degree Days 34    
Moisture  
Dew Point 15 °F    
Average Humidity 53    
Maximum Humidity 74    
Minimum Humidity 27    
Precipitation  
Precipitation 0.00 in - - ()
Sea Level Pressure  
Sea Level Pressure 30.03 in    
Wind  
Wind Speed 6 mph (WSW)    
Max Wind Speed 26 mph    
Max Gust Speed 34 mph    
Averages and records for this station are not official NWS values.
T = Trace of Precipitation, MM = Missing Value Source: NWS Daily Summary

Daily Weather History Graph

Daily Weather History Graph

Search for Another Location

Airport or City:

Trip Planner

Search our weather history database for the weather conditions in past years. The results will help you decide how hot, cold, wet, or windy it might be!

Date:

Astronomy

Mar. 09, 2015 Rise Set
Actual Time 7:08 AM EDT 6:44 PM EDT
Civil Twilight 6:40 AM EDT 7:12 PM EDT
Nautical Twilight 6:07 AM EDT 7:46 PM EDT
Astronomical Twilight 5:33 AM EDT 8:19 PM EDT
Moon 10:41 PM EDT (3/9) 8:53 AM EDT (3/9)
Length of Visible Light 12h 32m
Length of Day
11h 35m
Waning Gibbous, 87% of the Moon is Illuminated
Mar 9
Waning Gibbous
Mar 13
Last Quarter
Mar 20
New
Mar 27
First Quarter
Apr 4
Full

Hourly Weather History & Observations

Time (EDT) Temp. Windchill Dew Point Humidity Pressure Visibility Wind Dir Wind Speed Gust Speed Precip Events Conditions
12:15 AM 26.6 °F 21.2 °F 12.2 °F 55% 30.03 in - WSW 4.6 mph - N/A   Clear
12:35 AM 24.8 °F 20.5 °F 12.2 °F 59% 30.03 in - SW 3.5 mph - N/A   Clear
12:55 AM 21.2 °F - 10.4 °F 63% 30.03 in - Calm Calm - N/A   Clear
1:15 AM 21.2 °F 16.4 °F 12.2 °F 68% 30.03 in - WSW 3.5 mph - N/A   Clear
1:35 AM 19.4 °F 12.8 °F 10.4 °F 68% 30.03 in - WSW 4.6 mph - N/A   Clear
1:55 AM 19.4 °F - 12.2 °F 74% 30.03 in - Calm Calm - N/A   Clear
2:15 AM 17.6 °F 12.3 °F 10.4 °F 73% 30.03 in - SW 3.5 mph - N/A   Clear
2:35 AM 19.4 °F 14.3 °F 12.2 °F 74% 30.03 in - SW 3.5 mph - N/A   Clear
2:55 AM 19.4 °F 14.3 °F 12.2 °F 74% 30.02 in - WSW 3.5 mph - N/A   Clear
3:15 AM 19.4 °F 14.3 °F 10.4 °F 68% 30.01 in - WSW 3.5 mph - N/A   Scattered Clouds
3:35 AM 19.4 °F - 12.2 °F 74% 30.01 in - Calm Calm - N/A   Overcast
3:55 AM 21.2 °F - 12.2 °F 68% 30.00 in - Calm Calm - N/A   Overcast
4:15 AM 21.2 °F - 12.2 °F 68% 30.00 in - Calm Calm - N/A   Overcast
4:35 AM 21.2 °F 14.9 °F 12.2 °F 68% 30.00 in - West 4.6 mph - N/A   Overcast
4:55 AM 21.2 °F 16.4 °F 12.2 °F 68% 30.00 in - West 3.5 mph - N/A   Mostly Cloudy
5:15 AM 23.0 °F - 12.2 °F 63% 29.99 in - Calm Calm - N/A   Scattered Clouds
5:35 AM 21.2 °F 13.6 °F 10.4 °F 63% 29.99 in - WSW 5.8 mph - N/A   Mostly Cloudy
5:55 AM 23.0 °F 15.8 °F 10.4 °F 59% 29.98 in - WSW 5.8 mph - N/A   Partly Cloudy
6:15 AM 23.0 °F 15.8 °F 12.2 °F 63% 29.98 in - West 5.8 mph - N/A   Clear
6:35 AM 19.4 °F 10.4 °F 8.6 °F 63% 29.98 in - SW 6.9 mph - N/A   Clear
6:55 AM 21.2 °F 13.6 °F 12.2 °F 68% 29.98 in - WSW 5.8 mph - N/A   Clear
7:15 AM 19.4 °F 11.5 °F 12.2 °F 74% 29.98 in - WSW 5.8 mph - N/A   Partly Cloudy
7:35 AM 19.4 °F 10.4 °F 10.4 °F 68% 29.98 in - WSW 6.9 mph - N/A   Mostly Cloudy
7:55 AM 21.2 °F 14.9 °F 12.2 °F 68% 29.97 in - West 4.6 mph - N/A   Overcast
8:15 AM 24.8 °F 19.1 °F 14.0 °F 64% 29.97 in - West 4.6 mph - N/A   Overcast
8:35 AM 24.8 °F 17.9 °F 14.0 °F 64% 29.97 in - West 5.8 mph - N/A   Overcast
8:55 AM 26.6 °F 19.1 °F 14.0 °F 59% 29.98 in - West 6.9 mph - N/A   Overcast
9:15 AM 26.6 °F 17.5 °F 15.8 °F 64% 29.97 in - West 9.2 mph - N/A   Overcast
9:35 AM 26.6 °F 17.5 °F 15.8 °F 64% 29.98 in - WSW 9.2 mph - N/A   Overcast
9:55 AM 28.4 °F 19.1 °F 17.6 °F 64% 29.98 in - WSW 10.4 mph - N/A   Mostly Cloudy
10:15 AM 30.2 °F 20.2 °F 17.6 °F 60% 29.98 in - SW 12.7 mph - N/A   Partly Cloudy
10:35 AM 33.8 °F 24.3 °F 19.4 °F 56% 29.98 in - SW 13.8 mph - N/A   Clear
10:55 AM 35.6 °F 27.5 °F 19.4 °F 52% 29.98 in - WSW 11.5 mph - N/A   Clear
11:15 AM 37.4 °F 28.9 °F 21.2 °F 52% 29.98 in - West 13.8 mph 20.7 mph N/A   Partly Cloudy
11:35 AM 39.2 °F 30.5 °F 21.2 °F 49% 29.98 in - West 16.1 mph 23.0 mph N/A   Scattered Clouds
11:55 AM 39.2 °F 29.0 °F 19.4 °F 45% 29.98 in - West 21.9 mph 29.9 mph N/A   Mostly Cloudy
12:15 PM 39.2 °F 28.0 °F 19.4 °F 45% 29.98 in - WSW 26.5 mph 34.5 mph N/A   Mostly Cloudy
12:35 PM 39.2 °F 30.2 °F 19.4 °F 45% 29.99 in - West 17.3 mph 28.8 mph N/A   Mostly Cloudy
12:55 PM 41.0 °F 33.5 °F 19.4 °F 42% 29.99 in - WNW 13.8 mph 27.6 mph N/A   Overcast
1:15 PM 39.2 °F 32.0 °F 17.6 °F 42% 29.99 in - West 11.5 mph 27.6 mph N/A   Overcast
1:55 PM 39.2 °F 31.2 °F 15.8 °F 39% 30.00 in - West 13.8 mph 25.3 mph N/A   Mostly Cloudy
2:15 PM 41.0 °F 34.3 °F 15.8 °F 36% 30.00 in - West 11.5 mph 25.3 mph N/A   Mostly Cloudy
2:35 PM 42.8 °F 36.2 °F 14.0 °F 31% 30.00 in - West 12.7 mph 23.0 mph N/A   Scattered Clouds
2:55 PM 42.8 °F 35.8 °F 14.0 °F 31% 30.00 in - WSW 13.8 mph 26.5 mph N/A   Partly Cloudy
3:15 PM 42.8 °F 35.8 °F 12.2 °F 29% 30.01 in - West 13.8 mph 24.2 mph N/A   Scattered Clouds
3:35 PM 44.6 °F 40.7 °F 12.2 °F 27% 30.02 in - NW 6.9 mph - N/A   Mostly Cloudy
3:55 PM 42.8 °F 35.4 °F 12.2 °F 29% 30.02 in - NW 15.0 mph 20.7 mph N/A   Scattered Clouds
4:15 PM 42.8 °F 34.5 °F 12.2 °F 29% 30.04 in - WNW 18.4 mph 24.2 mph N/A   Partly Cloudy
4:35 PM 42.8 °F 37.5 °F 12.2 °F 29% 30.04 in - WNW 9.2 mph 20.7 mph N/A   Partly Cloudy
4:55 PM 42.8 °F 38.6 °F 12.2 °F 29% 30.04 in - West 6.9 mph - N/A   Partly Cloudy
5:15 PM 41.0 °F 34.3 °F 12.2 °F 31% 30.05 in - West 11.5 mph 18.4 mph N/A   Partly Cloudy
5:35 PM 41.0 °F 34.7 °F 12.2 °F 31% 30.05 in - West 10.4 mph 16.1 mph N/A   Partly Cloudy
5:55 PM 42.8 °F 37.5 °F 12.2 °F 29% 30.05 in - WNW 9.2 mph 23.0 mph N/A   Clear
6:15 PM 41.0 °F 36.4 °F 12.2 °F 31% 30.05 in - West 6.9 mph - N/A   Clear
6:35 PM 39.2 °F 33.6 °F 14.0 °F 36% 30.06 in - West 8.1 mph - N/A   Clear
6:55 PM 39.2 °F 37.0 °F 14.0 °F 36% 30.06 in - WSW 3.5 mph - N/A   Clear
7:15 PM 35.6 °F - 15.8 °F 44% 30.07 in - Calm Calm - N/A   Clear
7:35 PM 33.8 °F - 15.8 °F 48% 30.08 in - Calm Calm - N/A   Clear
7:55 PM 32.0 °F - 15.8 °F 51% 30.08 in - Calm Calm - N/A   Clear
8:15 PM 30.2 °F - 15.8 °F 55% 30.09 in - Calm Calm - N/A   Clear
8:35 PM 30.2 °F - 17.6 °F 60% 30.10 in - Calm Calm - N/A   Clear
8:55 PM 32.0 °F 26.4 °F 17.6 °F 55% 30.10 in - WSW 5.8 mph - N/A   Clear
9:15 PM 33.8 °F 26.4 °F 15.8 °F 48% 30.10 in - WSW 9.2 mph - N/A   Clear
9:35 PM 35.6 °F 29.2 °F 17.6 °F 48% 30.11 in - WSW 8.1 mph - N/A   Clear
9:55 PM 33.8 °F 27.0 °F 17.6 °F 52% 30.11 in - WSW 8.1 mph - N/A   Clear
10:15 PM 33.8 °F 26.4 °F 17.6 °F 52% 30.12 in - SW 9.2 mph - N/A   Clear
10:35 PM 33.8 °F 25.3 °F 17.6 °F 52% 30.12 in - SW 11.5 mph - N/A   Clear
10:55 PM 35.6 °F 26.6 °F 17.6 °F 48% 30.13 in - SW 13.8 mph 18.4 mph N/A   Clear
11:15 PM 35.6 °F 27.1 °F 17.6 °F 48% 30.14 in - SW 12.7 mph - N/A   Clear
11:35 PM 35.6 °F 25.9 °F 19.4 °F 52% 30.14 in - SSW 16.1 mph - N/A   Clear
11:55 PM 35.6 °F 25.5 °F 19.4 °F 52% 30.14 in - SW 17.3 mph - N/A   Clear